Thompson, Missouri
Current Conditions -  °F | °C
As of 3:54 AM on Sunday 21 Dec 2014 (Local Time) from KCOU Reporting Station
Overcast Overcast  
Wind Chill: 35°   Ceiling: 2200
Heat Index: 40°   Visibility: 10mi
Dew Point: 35°   Wind: 7mph
Humidity: 83%   Direction: 150°SSE
Pressure: 30.14"   Gusts: NA
Location:  39.19°N, 91.98°W
Report Text: KCOU 210954Z AUTO 15006KT 10SM OVC022 04/02 A3014 RMK AO2 SLP209 T00440017
Loading
Personal Weather Stations






























Interactive Weather Map New forecast layout! Learn more

10-Day Weather Forecast

Advertisements
Track Severe Weather on mobile